Terminal Aerodrome Forecast
Issued by NWS

Current Version | Previous Version | Text Only | Print | Product List | Glossary On
Versions: 1 2 3 4 5 6 7 8 9 10 11 12 13 14 15 16 17 18 19 20 21 22
317
FTUS43 KGRR 210530
TAFAZO
TAF
KAZO 210530Z 2106/2206 VRB03KT 1/2SM FG VV002
     FM211400 15005KT 1SM BR OVC003
     FM211700 17007KT P6SM BKN020
     FM212100 15009KT P6SM BKN250=

USA.gov is the U.S. government's official web portal to all federal, state and local government web resources and services.